Regional Weather Roundup
Issued by NWS

Home | Current Version | Previous Version | Text Only | Print | Product List | Glossary Off
Versions: 1 2 3 4 5 6 7 8 9 10 11 12 13 14 15 16 17 18 19 20 21 22 23 24 25 26 27 28 29 30 31 32 33 34 35 36 37 38 39 40 41 42 43 44 45 46 47 48 49 50

000
ASUS43 KFSD 231902
RWRSD

WEATHER ROUNDUP FOR SOUTH DAKOTA
NATIONAL WEATHER SERVICE SIOUX FALLS SD
200 PM CDT TUE AUG 23 2016

NOTE: "FAIR" INDICATES FEW OR NO CLOUDS BELOW 12,000 FEET WITH NO
SIGNIFICANT WEATHER AND/OR OBSTRUCTIONS TO VISIBILITY.


SDZ001>005-009-010-012>017-232000-
NORTHWEST AND NORTH CENTRAL SOUTH DAKOTA

CITY           SKY/WX    TMP DP  RH WIND       PRES   REMARKS
BUFFALO          N/A     77  31  18 NW24G41   29.87R
FAITH            N/A     83  35  18 NW26G37   29.83R
MOBRIDGE       PTSUNNY   83  52  34 N16G28    29.72R
$$

SDZ012>016-024>037-041>051-057-063-072>074-232000-
SOUTHWEST AND SOUTH CENTRAL SOUTH DAKOTA

CITY           SKY/WX    TMP DP  RH WIND       PRES   REMARKS
RAPID CTY ARPT SUNNY     80  31  16 NW30G38   29.93R
PIERRE         SUNNY     82  56  40 NW15G23   29.74R
CUSTER         SUNNY     76  30  18 NE9       30.03S
PHILIP         SUNNY     85  43  22 N29G38    29.81R
PINE RIDGE     SUNNY     81  39  22 N16G24    29.92R
WINNER         FAIR      89  58  34 NW13G21   29.76R
$$

SDZ004>011-016>023-039-040-232000-
NORTHEAST SOUTH DAKOTA

CITY           SKY/WX    TMP DP  RH WIND       PRES   REMARKS
ABERDEEN       SUNNY     88  64  44 S20G32    29.69R
WATERTOWN      SUNNY     83  64  52 S23G33    29.79S
BROOKINGS      CLOUDY    76  67  73 S20       29.83S
$$

SDZ017-020-022-023-036>040-048>070-232000-
SOUTHEAST SOUTH DAKOTA

CITY           SKY/WX    TMP DP  RH WIND       PRES   REMARKS
SIOUX FALLS    LGT RAIN  71  69  93 S10       29.84F
HURON          SUNNY     85  63  47 S17G29    29.73S
CHAMBERLAIN    MOSUNNY   89  70  53 S15       29.73S
MITCHELL       MOSUNNY   80  68  66 S20G29    29.77F
YANKTON        CLOUDY    70  64  83 SE15      29.81S
$$

ABBREVIATIONS USED IN REMARKS
   TC - TEMPERATURE IN CELSIUS
  WCI - WIND CHILL INDEX
   HX - HEAT INDEX
  VSB - VISIBILITY





USA.gov is the U.S. government's official web portal to all federal, state and local government web resources and services.